Andover, NJ

5:44 PM EST on December 05, 2019 (GMT -0500)
Andover

Weather History for K12N - September, 2019

Change the Weather History Date:

Thursday, September 19, 2019

  Actual Average (KFWN) Record (KFWN)
Temperature  
Mean Temperature 56 °F -  
Max Temperature 71 °F 73 °F 85 °F (1964)
Min Temperature 43 °F 49 °F 32 °F (1959)
Degree Days  
Heating Degree Days 8    
Growing Degree Days 6 (Base 50)    
Moisture  
Dew Point 44 °F    
Average Humidity 74    
Maximum Humidity 100    
Minimum Humidity 33    
Precipitation  
Precipitation 0.00 in - - ()
Sea Level Pressure  
Sea Level Pressure 30.33 in    
Wind  
Wind Speed 1 mph (NNW)    
Max Wind Speed 5 mph    
Max Gust Speed -    
Averages and records for this station are not official NWS values.
T = Trace of Precipitation, MM = Missing Value Source: NWS Daily Summary

Daily Weather History Graph

Daily Weather History Graph

Search for Another Location

Airport or City:

Astronomy

Sep. 19, 2019 Rise Set
Actual Time 6:43 AM EDT 7:01 PM EDT
Civil Twilight 6:15 AM EDT 7:29 PM EDT
Nautical Twilight 5:43 AM EDT 8:01 PM EDT
Astronomical Twilight 5:10 AM EDT 8:34 PM EDT
Moon 10:06 PM EDT (9/19) 11:46 AM EDT (9/19)
Length of Visible Light 13h 13m
Length of Day
12h 18m
Waning Gibbous, 74% of the Moon is Illuminated
Sep 19
Waning Gibbous
Sep 21
Last Quarter
Sep 28
New
Oct 5
First Quarter
Oct 13
Full

Hourly Weather History & Observations

Time (EDT) Temp. Dew Point Humidity Pressure Visibility Wind Dir Wind Speed Gust Speed Precip Events Conditions
12:54 AM 48.0 °F 46.0 °F 93% 30.34 in - Calm Calm - N/A   Unknown
1:54 AM 48.9 °F 46.9 °F 93% 30.34 in - Calm Calm - N/A   Unknown
2:54 AM 48.0 °F 46.0 °F 93% 30.33 in - Calm Calm - N/A   Unknown
3:54 AM 46.0 °F 44.1 °F 93% 30.33 in - Calm Calm - N/A   Unknown
4:54 AM 43.0 °F 41.0 °F 93% 30.35 in - Calm Calm - N/A   Unknown
5:54 AM 43.0 °F 42.1 °F 97% 30.34 in - Calm Calm - N/A   Unknown
6:54 AM 43.0 °F 41.0 °F 93% 30.37 in - Calm Calm - N/A   Unknown
7:54 AM 43.0 °F 43.0 °F 100% 30.38 in - Calm Calm - N/A   Unknown
8:54 AM 50.0 °F 46.9 °F 89% 30.39 in - Calm Calm - N/A   Unknown
9:54 AM 57.0 °F 46.0 °F 67% 30.39 in - Calm Calm - N/A   Unknown
10:54 AM 61.0 °F 43.0 °F 52% 30.38 in - North 4.6 mph - N/A   Unknown
11:54 AM 64.0 °F 42.1 °F 45% 30.37 in - NNW 3.5 mph - N/A   Unknown
12:54 PM 66.0 °F 42.1 °F 42% 30.34 in - Variable 3.5 mph - N/A   Unknown
1:54 PM 69.1 °F 43.0 °F 39% 30.32 in - Variable 4.6 mph - N/A   Unknown
2:54 PM 69.1 °F 39.0 °F 33% 30.32 in - Calm Calm - N/A   Unknown
3:54 PM 70.0 °F 39.9 °F 33% 30.31 in - Calm Calm - N/A   Unknown
4:54 PM 70.0 °F 39.9 °F 33% 30.30 in - Variable 4.6 mph - N/A   Unknown
5:54 PM 64.9 °F 45.0 °F 48% 30.31 in - Calm Calm - N/A   Unknown
6:54 PM 57.0 °F 48.9 °F 74% 30.31 in - Calm Calm - N/A   Unknown
7:54 PM 52.0 °F 48.9 °F 89% 30.31 in - Calm Calm - N/A   Unknown
8:54 PM 50.0 °F 48.0 °F 93% 30.30 in - Calm Calm - N/A   Unknown
9:54 PM 46.9 °F 46.0 °F 97% 30.30 in - Calm Calm - N/A   Unknown
10:54 PM 46.9 °F 45.0 °F 93% 30.30 in - Calm Calm - N/A   Unknown
11:54 PM 46.0 °F 44.1 °F 93% 30.29 in - Calm Calm - N/A   Unknown